Weather in Zolotonosha

Ukraine / Cherkassi District     49˚40′12″N   32˚02′22″E
temp.,
°C
wind,
m/s
gust,
m/s
humid.,
%
clouds,
%
prec.,
mm/h
press.,
hPa
HPBL,
m
28 november, sat
sat2823:00+4˚w3680100 0.0 1019321
02:00+3˚w2487100 0.1 1019290
05:00+3˚wsw1298100 1.6 1018136
08:00+3˚ssw1398100 3.3 1018157
11:00+4˚s2393100 0.8 1019227
14:00+4˚sw2389100 1.1 1018271
17:00+4˚w2396100 0.5 1017198
20:00+3˚wsw1295100 0.6 1018165
29 november, sun
sun2923:00+3˚w2394100 0.0 1018151
02:00+3˚nw1290100 0.0 101982
05:00+2˚nw1190100 0.0 101826
08:00+2˚w1196100 0.4 1020127
11:00+2˚wsw1296100 0.4 1020117
14:00+3˚wsw1282100 0.6 1021327
17:00+3˚ese229093 0.0 1021132
20:00+3˚e129096 0.1 1022119
30 november, mon
mon3023:00+3˚e1190100 0.0 102231
02:00+2˚n2297100 0.3 1023158
05:00+2˚n3596100 0.3 1022252
08:00+1˚n3596100 0.4 1023256
11:00+1˚n3597100 1.7 1024244
14:00+1˚n4696100 2.6 1024329
17:00n5898100 1.5 1024328
20:00n4798100 4.2 1025384
1 december, tue
tue123:00n61098100 2.1 1026471
02:00n51096100 3.1 1026503
05:00n5897100 1.1 1026437
08:00n5996100 1.5 1027446
11:00nne5899100 0.3 1027399
14:00nne4699100 0.4 1026264
17:00+1˚nne36100100 0.1 1026198
20:00+1˚ne4795100 0.1 1027212
2 december, wed
wed223:00+1˚ene36100100 0.0 1027285
02:00+1˚e3599100 0.1 1026244
05:00+1˚e3499100 0.1 1026212
08:00+1˚e3599100 0.1 1027235
11:00+1˚e4698100 0.1 1027330
14:00+1˚e3597100 0.1 1026339
17:00+1˚e3698100 0.1 1027343
20:00+1˚e4797100 0.2 1027372